Location: *
(50.8160°S, 176.0219°W)
Time: 23:39:23
(UTC+00:00)

SPOT 1/Viking Rocket - Pass Details

Date: 19 May 2026
Orbit: 772 x 790 km, 98.2° (Epoch: 11 June)

Event Time Altitude Azimuth Distance (km) Brightness Sun altitude
Rises 17:24:06 0° 16° (NNE) 3,268 7.1 -17.8°
Reaches altitude 10° 17:26:24 10° 15° (NNE) 2,350 6.3 -17.5°
Maximum altitude 17:31:37 87° 287° (WNW) 806 3.5 -16.7°
Drops below altitude 10° 17:36:55 10° 195° (SSW) 2,390 5.8 -15.9°
Sets 17:39:17 0° 194° (SSW) 3,328 6.5 -15.5°
